Location: Newark
(52.0178°N, 4.7453°W)
Time: 23:34:49
(UTC+00:00)

ISS - Visible Passes

Search period start: 19 March 2019 00:00
Search period end: 29 March 2019 00:00
Orbit: 406 x 411 km, 51.6° (Epoch: 20 March)

Date Brightness Start Highest point End Pass type
(mag) Time Alt. Az. Time Alt. Az. Time Alt. Az.
22 Mar -2.2 20:11:40 10° SSW 20:13:34 21° SSE 20:13:34 21° SSE visible
23 Mar -1.9 19:21:27 10° S 19:23:31 16° SE 19:25:14 11° ESE visible
23 Mar -2.2 20:56:20 10° WSW 20:58:01 26° SW 20:58:01 26° SW visible
24 Mar -3.2 20:05:30 10° SW 20:08:35 38° SSE 20:09:28 31° ESE visible
24 Mar -0.9 21:41:41 10° W 21:42:13 14° W 21:42:13 14° W visible
25 Mar -2.6 19:14:48 10° SSW 19:17:40 27° SSE 19:20:32 10° E visible
25 Mar -3.6 20:50:39 10° WSW 20:53:32 62° SW 20:53:32 62° SW visible
26 Mar -3.7 19:59:38 10° WSW 20:02:55 60° SSE 20:04:43 23° E visible
26 Mar -1.6 21:36:06 10° W 21:37:27 22° W 21:37:27 22° W visible
27 Mar -4.0 20:45:01 10° W 20:48:20 86° S 20:48:32 77° ESE visible
28 Mar -3.9 19:53:56 10° WSW 19:57:14 79° S 19:59:33 18° E visible
28 Mar -2.0 21:30:28 10° W 21:32:17 30° W 21:32:17 30° W visible
